量子界

量子谷/量子界论坛 - 分享是一种快乐!(中文字幕/百度网盘/迅雷下载)

 找回密码
 立即注册
收藏本版 |订阅

参数查询 今日: 0|主题: 1548|排名: 9 

作者 回复/查看 最后发表
别敲两次门 Dont.Knock.Twice.2016.720p.BluRay-JustWatch 4.37GB 字幕、种子均不提供 ... 不提供下载 2017-2-27 087 不提供下载 2017-2-27 09:25
别敲两次门 Dont.Knock.Twice.2016.1080p.BluRay-JustWatch 7.65GB 字幕、种子均不提 ... 不提供下载 2017-2-27 061 不提供下载 2017-2-27 09:25
情人节恋事 It.Happened.One.Valentines.1080p.WEB-DL 3.5GB 字幕、种子均不提供下载 不提供下载 2017-2-27 045 不提供下载 2017-2-27 09:25
无处为家 I.Dont.Feel.at.Home.720p.NF.WEBRip-SB 3.16GB 字幕、种子均不提供下载 不提供下载 2017-2-27 079 不提供下载 2017-2-27 09:25
美国暴力 American.Violence.1080p.BluRay- 23GB 字幕、种子均不提供下载 不提供下载 2017-2-27 069 不提供下载 2017-2-27 09:25
神奇动物在哪里 2016.720p.BluRay 7.34GB 字幕、种子均不提供下载 不提供下载 2017-2-26 257 lilei198365 2017-2-26 21:48
性别大错位 Sam.2015.1080p.WEB-DL 4.04GB 字幕、种子均不提供下载 不提供下载 2017-2-25 2150 defy263 2017-2-26 20:18
针扎 Needlestick.2017.1080p.WEB-DL 3.32GB 字幕、种子均不提供下载 不提供下载 2017-2-25 162 yauman2002 2017-2-26 16:52
神奇动物在哪里 2016.1080p.BluRay 12.8GB 字幕、种子均不提供下载 不提供下载 2017-2-26 075 不提供下载 2017-2-26 11:34
谜室 Riddle.Room.1080p.WEB-DL 3GB 字幕、种子均不提供下载 不提供下载 2017-2-26 052 不提供下载 2017-2-26 11:34
从心始原 Hard.Sell.1080p.WEB-DL2.0 3.09GB 字幕、种子均不提供下载 不提供下载 2017-2-26 044 不提供下载 2017-2-26 11:34
一路顺风 Godspeed.1080p.BluRay 11.00GB 字幕、种子均不提供下载 不提供下载 2017-2-26 042 不提供下载 2017-2-26 11:33
梦土/迷情梦境手指尖的迷情 Dreamland.1080p.WEB-DL 3.1GB 字幕、种子均不提供下载 不提供下载 2017-2-26 064 不提供下载 2017-2-26 11:33
一路顺风 Godspeed.720p.BluRay 5.47GB 字幕、种子均不提供下载 不提供下载 2017-2-26 047 不提供下载 2017-2-26 11:33
一路顺风 Godspeed.1080p.BluRay 11GB 字幕、种子均不提供下载 不提供下载 2017-2-26 049 不提供下载 2017-2-26 11:32
血浓于罪 Trespass.Against.Us.1080p.BluRay- 37.9GB 字幕、种子均不提供下载 不提供下载 2017-2-26 043 不提供下载 2017-2-26 11:32
血战钢锯岭 Hacksaw.Ridge.1080p.BluRay 14.1G 字幕、种子均不提供下载 不提供下载 2017-2-15 194 byronwu2003 2017-2-25 22:39
间谍同盟/伴谍同盟 Allied.1080p.WEB-DL 4.3GB 字幕、种子均不提供下载 不提供下载 2017-2-15 1151 WYXDYA 2017-2-25 21:25
名侦探柯南:纯黑的恶梦[国粤日三语/中字]2016.1080p.BluRay 7.95GB 字幕、种子均不提 ... 不提供下载 2017-2-22 1100 湘宜智能影音 2017-2-25 15:49
太空旅客/太空潜航者/星际过客 Passengers.1080p.WEB-DL 3.97GB 字幕、种子均不提供下 ... 不提供下载 2017-2-25 090 不提供下载 2017-2-25 11:55
兽设 Fursonas.720p.BluRay-SADPANDA 2.65GB 字幕、种子均不提供下载 不提供下载 2017-2-25 0171 不提供下载 2017-2-25 11:55
兽设 Fursonas.1080p.BluRay-SADPANDA 5.47GB 字幕、种子均不提供下载 不提供下载 2017-2-25 085 不提供下载 2017-2-25 11:55
我是布莱克 I.Daniel.Blake.1080p.BluRay- 7.7GB 字幕、种子均不提供下载 不提供下载 2017-2-25 053 不提供下载 2017-2-25 11:55
我是布莱克 I.Daniel.Blake.1080p.BluRay.REMUX- 25GB 字幕、种子均不提供下载 不提供下载 2017-2-25 052 不提供下载 2017-2-25 11:55
恢复 Recovery.1080p.BluRay 5.91GB 字幕、种子均不提供下载 不提供下载 2017-2-25 044 不提供下载 2017-2-25 11:55
恢复 Recovery.1080p.BluRay.REMUX-HR 9.56GB 字幕、种子均不提供下载 不提供下载 2017-2-25 037 不提供下载 2017-2-25 11:55
克里斯汀 Christine.LIMITED.1080p.BluRay-CADAVER 7.96GB 字幕、种子均不提供下载 不提供下载 2017-2-25 059 不提供下载 2017-2-25 11:55
[名侦探柯南:纯黑的恶梦]2016.BluRay.720p.3Audio-CnSCG[国粤日中字/3.5G] 字幕、种 ... 不提供下载 2017-2-25 056 不提供下载 2017-2-25 11:55
克里斯汀 Christine.LIMITED.720p.BluRay-CADAVER 5.47 GB 字幕、种子均不提供下载 不提供下载 2017-2-25 034 不提供下载 2017-2-25 11:55
BT下载]海洋奇缘[国英简繁] [email protected] 16G 字幕、种子均不提供下 ... 不提供下载 2017-2-25 096 不提供下载 2017-2-25 11:55
爱狗的人 The.Dog.Lover.1080p.WEB-DL 3.45GB 字幕、种子均不提供下载 不提供下载 2017-2-25 084 不提供下载 2017-2-25 11:55
群斗 The.Horde.1080p.WEB-DL 3GB 字幕、种子均不提供下载 不提供下载 2017-2-25 044 不提供下载 2017-2-25 11:55
第一夫人/杰姬 Jackie.1080p.BluRay- 8.98GB 字幕、种子均不提供下载 不提供下载 2017-2-25 032 不提供下载 2017-2-25 11:55
阿尔普 Alp.1080p.WEB-DL2.0 2.59GB 字幕、种子均不提供下载 不提供下载 2017-2-25 033 不提供下载 2017-2-25 11:55
睡美人的诅咒 The.Curse.of.Sleeping.Beauty.1080p.WEB-DL-ehMD 3GB 字幕、种子均不提 ... 不提供下载 2017-2-25 054 不提供下载 2017-2-25 11:55
检查站/核对点 Check.Point.BluRay.1080p-CHD 8.32GB 字幕、种子均不提供下载 不提供下载 2017-2-24 184 wxq919 2017-2-25 02:01
杀人合约 Contract.To.Kill.720p.BluRay-ROVERS 4.36GB 字幕、种子均不提供下载 不提供下载 2017-2-16 3296 ldibji 2017-2-24 19:16
血浓于罪/得罪我们 Trespass.Against.Us.1080p.WEB-DL 3.4GB 字幕、种子均不提供下载 不提供下载 2017-1-19 2675 九莫 2017-2-24 16:59
布兰妮 Britney.Ever.After.720p.HDTV-UAV 2.66GB 字幕、种子均不提供下载 不提供下载 2017-2-24 0101 不提供下载 2017-2-24 09:48
俄克拉何马城爆炸案 Oklahoma.City.720p.WEB-DL-Coo7 3.11GB 字幕、种子均不提供下载 不提供下载 2017-2-24 051 不提供下载 2017-2-24 09:48
林荫道 The.Avenue.1080p.WEB-DL2.0 2.73GB 字幕、种子均不提供下载 不提供下载 2017-2-24 047 不提供下载 2017-2-24 09:48
票价 Fare.2016.1080p.WEB-DL 2.63GB 字幕、种子均不提供下载 不提供下载 2017-2-24 041 不提供下载 2017-2-24 09:48
检查站/核对点 Check.Point.1080p.BluRay.REMUX-HR 16GB 字幕、种子均不提供下载 不提供下载 2017-2-24 065 不提供下载 2017-2-24 09:48
女友日 Girlfriends.Day.2160p.NF.WEBRip-TrollUHD 5.5GB 字幕、种子均不提供下载 不提供下载 2017-2-24 053 不提供下载 2017-2-24 09:48
朋友夫妇:交换 ????:??? ???.480p.HDRip 3GB 字幕、种子均不提供下载 不提供下载 2017-2-18 2325 1270051619 2017-2-24 02:11
刑柱之地2 Stake.Land.II.1080p.BluRay- 21.7GB 字幕、种子均不提供下载 不提供下载 2017-2-16 1464 mm12345 2017-2-23 23:08
刑柱之地2 Stake.Land.II.1080p.BluRay- 6.8GB 字幕、种子均不提供下载 不提供下载 2017-2-16 1329 大卓卓 2017-2-23 22:43
摆渡人 See You Tomorrow 2016 WEB-DL 1080p H264 AAC-npuer 4.64G 字幕、种子均不提 ... 不提供下载 2017-2-15 4152 cblenovo 2017-2-23 21:39
海洋奇缘/莫阿娜 Moana.BluRay.1080p-CHD 8.16GB 字幕、种子均不提供下载 不提供下载 2017-2-19 3370 ntlbr 2017-2-23 14:22
[致青春·原来你还在这里]Never.Gone.BluRay.720p-CnSCG[中字/2.8G] 字幕、种子均不提 ... 不提供下载 2017-2-23 148 prh8888888 2017-2-23 10:36
下一页 »

快速发帖

还可输入 80 个字符
您需要登录后才可以发帖 登录 | 立即注册

本版积分规则

Archiver|手机版|小黑屋|量子谷/量子界论坛 - 分享是一种快乐!   | 联系我们

GMT+8, 2017-3-25 00:06 , Processed in 0.082640 second(s), 16 queries .

Powered by Discuz! X3.1

© 2001-2013 Comsenz Inc.

返回顶部 返回版块